Tracking 27112 objects as of 26-Mar-2023
HD Live streaming from Space Station
objects crossing your sky now

DMSP 5D-2 F11 DEB

Track DMSP 5D-2 F11 DEB now!
10-day predictions


NORAD ID: 28349
Int'l Code: 1991-082BN
Perigee: 760.5 km
Apogee: 863.7 km
Inclination: 98.9 °
Period: 101.0 minutes
Semi major axis: 7183 km
RCS: 0.01 m2 (small)
Launch date: November 28, 1991
Source: United States (US)
Launch site: AIR FORCE WESTERN TEST RANGE (AFWTR)

Note: This is SATELLITE DEBRIS
Your satellite tracking list
Your tracking list is empty




NASA's NSSDC Master Catalog

Two Line Element Set (TLE):
1 28349U 91082BN  23084.05616001  .00011394  00000-0  46536-2 0  9996
2 28349  98.9112 115.6857 0071845 236.9748 155.4813 14.26057458970785
Source of the keplerian elements: AFSPC